Flag for Switzerland Weather past 2 weeks in Pully, Vaud, Switzerland

Now
67 °F

Mild.


Feels Like: 67 °F
Forecast: 47 / 66 °F
Wind: 3 mph from South

Location: Aigle

Current Time: Sep 21, 2014 at 2:08:50 PM

Latest Report: Sep 21, 2014 at 1:00 PM


Visibility: N/A

Pressure: 30.03 "Hg

Humidity: 74%

Dew point: 59 °F

Location of PullyLocation

Historic Weather in Pully — Graph

°F

Pully temperature yesterday

Maximum temperature yesterday: 71 °F (at 2:00 PM)
Minimum temperature yesterday: 58 °F (at 8:00 AM)
Average temperature yesterday: 64 °F

Past Weeks' High & Low Weather Summary

 TemperatureHumidityPressure
High76 °F (Sep 7, 4:00 PM)100% (Sep 10, 7:00 AM)30.11 "Hg (Sep 10, 7:00 AM)
Low47 °F (Sep 12, 8:00 AM)51% (Sep 12, 5:00 PM)29.82 "Hg (Sep 17, 3:00 PM)
Average63 °F81%29.97 "Hg
* Reported Sep 6 12:00 Noon — Sep 21 12:00 Noon, Pully, Weather by CustomWeather, © 2014

Note: Actual official high and low records may vary slightly from our data, if they occured in-between our weather recording intervals... More about our weather records

Advertising

Pully weather history for previous 24 hours

 ConditionsComfort  
Time TempWeatherWind HumidityBarometerVisibility
12:00 PM
Sep 21
69 °FMild.7 mph76%30.03 "HgN/A
11:00 AM67 °FPartly sunny.5 mph78%30.06 "Hg11 mi
10:00 AM62 °FCool.8 mph95%30.07 "HgN/A
9:00 AM62 °FCool.6 mph91%30.06 "HgN/A
8:00 AM61 °FOvercast.2 mph95%30.06 "Hg11 mi
7:00 AM62 °FCool.6 mph88%30.06 "HgN/A
6:00 AM60 °FCool.6 mph95%30.06 "HgN/A
5:00 AM60 °FDrizzle. Overcast.3 mph96%30.04 "Hg6 mi
4:00 AM60 °FCool.2 mph96%30.05 "HgN/A
3:00 AM62 °FCool.7 mph92%30.04 "HgN/A
2:00 AM62 °FCool.3 mph94%30.05 "HgN/A
1:00 AM61 °FCool.2 mph97%30.06 "HgN/A
12:00 AM62 °FCool.2 mph95%30.05 "HgN/A
11:00 PM
Sep 20
62 °FCool.1 mph95%30.05 "HgN/A
10:00 PM63 °FMild.3 mph95%30.04 "HgN/A
9:00 PM64 °FMild.2 mph93%30.04 "HgN/A
8:00 PM65 °FOvercast.2 mph92%30.02 "Hg9 mi
7:00 PM71 °FMild.1 mph67%29.99 "HgN/A
3:00 PM69 °FMild.6 mph69%30.01 "HgN/A
2:00 PM71 °FPartly sunny.9 mph66%30.01 "Hg16 mi
Weather by CustomWeather, © 2014

See weather overviewHow to use our weather pages